www.pogodaiklimat.ru

Погода и климат >> Архив погоды >> Австралия >> Квинсленд >> Камоауил


ПОГОДА в Камоауиле

  • Прогноз погоды в Камоауиле
  • Монитор погоды в Камоауиле

АРХИВ ПОГОДЫ в Камоауиле

Время (UTC), дата Ветер
(напр.,м/с)
 
Видим.   Явления Облачность Т
(С)
Тd
(С)
f
(%)
Тe
(С)
Тes
(С)
Комфортность P
(гПа)
Po
(гПа)
Тmin
(С)
Tmax
(С)
R
(мм)
R24
(мм)
S
(см)
17 12.06 штиль 0 н/о н/о +19.5 +11.8 61 +21 +21 комфорт 1015.7 988.6
18 12.06 штиль 0 н/о н/о +17.8 +9.4 58 +18 +18 1015.5 988.5
20 12.06 С 2 н/о н/о +18.6 +12.1 66 +20 +20 1015.7 988.6
21 12.06 СВ 2 н/о н/о +18.7 +13.3 71 +20 +20 1016.1 989.0
23 12.06 СВ 2 н/о н/о +24.0 +13.5 52 +26 +26 жарко 1017.2 990.1
00 13.06 СВ 4 н/о н/о +27.4 +13.0 41 +29 +29 жарко 1017.6 990.5
02 13.06 В 4 н/о н/о +30.5 +12.4 33 +31 +31 жарко 1016.9 989.8 +17.0
03 13.06 Ю 6 н/о н/о +32.0 +12.8 31 +33 +33 жарко 1015.8 988.7
05 13.06 Ю 4 н/о н/о +32.3 +12.5 30 +33 +33 жарко 1013.7 986.7
06 13.06 Ю 6 н/о н/о +31.5 +12.3 31 +32 +32 жарко 1013.7 986.7
08 13.06 Ю 4 н/о н/о +29.8 +12.3 34 +31 +31 жарко 1013.8 986.8
09 13.06 Ю 4 н/о н/о +27.3 +12.1 39 +29 +29 жарко 1014.6 987.6
11 13.06 Ю 4 н/о н/о +25.2 +12.1 44 +27 +27 жарко 1016.2 989.1
12 13.06 Ю 5 н/о н/о +25.1 +12.7 46 +27 +27 жарко 1016.9 989.8
14 13.06 Ю 4 н/о н/о +23.0 +13.2 54 +26 +26 жарко 1016.9 989.8 +32.7
15 13.06 Ю 4 н/о н/о +22.2 +13.0 56 +25 +25 комфорт 1016.8 989.7
17 13.06 Ю 4 н/о н/о +20.2 +11.9 59 +22 +22 комфорт 1016.6 989.5
18 13.06 Ю 4 н/о н/о +18.9 +11.2 61 +20 +20 1016.4 989.3
20 13.06 Ю 2 н/о н/о +16.4 +10.5 68 +17 +17 1016.5 989.4
21 13.06 Ю 3 н/о н/о +15.6 +10.2 70 +15 +15 1017.2 990.1
23 13.06 ЮВ 4 н/о н/о +21.3 +13.0 59 +24 +24 комфорт 1017.9 990.8
00 14.06 ЮВ 4 н/о н/о +24.2 +13.4 51 +26 +26 жарко 1018.1 991.0
02 14.06 В 4 н/о н/о +28.7 +11.3 34 +29 +29 жарко 1016.6 989.5 +15.3
03 14.06 В 4 н/о н/о +30.3 +11.3 31 +31 +31 жарко 1015.7 988.6
05 14.06 ЮВ 5 н/о н/о +31.1 +11.0 29 +31 +31 жарко 1014.1 987.1
06 14.06 Ю 5 н/о н/о +31.2 +11.1 29 +31 +31 жарко 1013.7 986.7
08 14.06 Ю 6 н/о н/о +28.9 +11.0 33 +29 +29 жарко 1014.3 987.3
09 14.06 Ю 6 н/о н/о +27.5 +11.9 38 +29 +29 жарко 1015.1 988.1
11 14.06 Ю 5 н/о н/о +25.0 +11.2 42 +26 +26 жарко 1016.7 989.6
12 14.06 Ю 5 н/о н/о +24.2 +11.5 45 +26 +26 жарко 1016.9 989.8
14 14.06 Ю 5 н/о н/о +22.1 +11.5 51 +24 +24 комфорт 1016.8 989.7 +31.9
15 14.06 ЮВ 4 н/о н/о +21.0 +11.6 55 +23 +23 комфорт 1016.4 989.3
17 14.06 Ю 2 н/о н/о +18.5 +10.8 61 +19 +19 1016.1 989.0
18 14.06 Ю 4 н/о н/о +17.2 +9.9 62 +17 +17 1016.1 989.0
20 14.06 Ю 3 н/о н/о +15.6 +8.8 64 +15 +15 1016.6 989.5
21 14.06 Ю 3 н/о н/о +15.1 +8.8 66 +15 +15 1017.2 990.1
23 14.06 Ю 4 н/о н/о +19.7 +9.0 50 +21 +21 комфорт 1018.1 991.0
00 15.06 ЮВ 4 н/о н/о +21.6 +9.5 46 +23 +23 комфорт 1018.2 991.1
02 15.06 Ю 3 н/о н/о +26.8 +10.5 36 +28 +28 жарко 1017.2 990.1 +14.8
03 15.06 Ю 3 н/о н/о +28.8 +10.9 33 +29 +29 жарко 1016.2 989.1
05 15.06 Ю 4 н/о н/о +30.6 +10.5 29 +31 +31 жарко 1014.0 987.0
06 15.06 ЮЗ 4 н/о н/о +30.3 +10.3 29 +30 +30 жарко 1013.6 986.6
08 15.06 Ю 6 н/о н/о +28.0 +9.8 32 +28 +28 жарко 1014.3 987.3
09 15.06 Ю 4 н/о н/о +25.9 +9.7 36 +27 +27 жарко 1015.0 988.0
11 15.06 Ю 4 н/о н/о +23.7 +9.7 41 +25 +25 комфорт 1016.5 989.4
12 15.06 Ю 5 н/о н/о +23.5 +9.9 42 +25 +25 комфорт 1016.9 989.8
14 15.06 ЮЗ 2 н/о н/о +19.2 +8.8 51 +21 +21 комфорт 1016.8 989.7 +31.0
15 15.06 ЮВ 2 н/о н/о +18.9 +9.7 55 +20 +20 1016.6 989.5
17 15.06 Ю 3 н/о н/о +16.4 +8.4 59 +16 +16 1016.5 989.4
18 15.06 ЮЗ 3 н/о н/о +15.7 +8.2 61 +15 +15 1016.7 989.6
20 15.06 Ю 6 н/о н/о +17.1 +8.8 58 +16 +16 1017.4 990.3
21 15.06 Ю 4 н/о н/о +16.5 +7.7 56 +16 +16 1017.9 990.8
23 15.06 ЮВ 7 н/о н/о +19.0 +4.4 38 +19 +19 1019.2 992.1
00 16.06 ЮВ 9 н/о н/о +21.7 +4.3 32 +22 +22 комфорт 1019.7 992.5
02 16.06 ЮВ 7 н/о н/о +25.7 +6.3 29 +25 +25 комфорт 1018.8 991.7 +15.3
03 16.06 ЮВ 6 н/о н/о +27.7 +7.5 28 +27 +27 жарко 1017.8 990.7
05 16.06 ЮВ 5 н/о н/о +28.4 +8.7 29 +28 +28 жарко 1016.2 989.1
06 16.06 Ю 6 н/о н/о +28.5 +8.7 29 +28 +28 жарко 1015.9 988.8
08 16.06 Ю 7 н/о н/о +25.9 +9.7 36 +27 +27 жарко 1016.6 989.5
09 16.06 Ю 7 н/о н/о +24.0 +11.0 44 +25 +25 комфорт 1017.4 990.3
11 16.06 Ю 5 н/о н/о +21.5 +12.4 56 +24 +24 комфорт 1018.9 991.8
12 16.06 Ю 6 н/о н/о +20.8 +11.7 56 +23 +23 комфорт 1019.4 992.2
14 16.06 Ю 8 н/о н/о +18.9 +8.8 52 +19 +19 1019.6 992.4 +29.2
15 16.06 Ю 6 н/о н/о +17.9 +8.2 53 +17 +17 1019.6 992.4
17 16.06 Ю 5 н/о н/о +17.3 +7.1 51 +17 +17 1019.1 992.0
18 16.06 Ю 5 н/о н/о +16.4 +6.8 53 +16 +16 1018.9 991.8
20 16.06 Ю 5 н/о н/о +15.6 +5.8 52 +14 +14 1019.5 992.3
21 16.06 Ю 4 н/о н/о +14.3 +5.4 55 +13 +13 1020.0 992.8
23 16.06 ЮВ 5 н/о н/о +16.8 +4.5 44 +16 +16 1021.4 994.2
00 17.06 ЮВ 5 н/о н/о +18.8 +4.2 38 +19 +19 1021.3 994.1
02 17.06 Ю 5 н/о н/о +23.7 +4.6 29 +23 +23 комфорт 1020.6 993.4 +14.0
03 17.06 Ю 6 н/о н/о +24.9 +5.2 28 +24 +24 комфорт 1019.4 992.2
05 17.06 Ю 8 н/о н/о +26.4 +4.8 25 +26 +26 жарко 1017.2 990.1
06 17.06 Ю 7 н/о н/о +26.2 +5.7 27 +26 +26 жарко 1016.9 989.8
08 17.06 Ю 7 н/о н/о +22.9 +0.7 23 +22 +22 комфорт 1017.4 990.3
09 17.06 Ю 5 н/о н/о +20.9 -0.4 24 +21 +21 комфорт 1018.2 991.1
11 17.06 Ю 4 н/о н/о +17.1 -2.0 27 +17 +17 1019.9 992.7
12 17.06 Ю 3 н/о н/о +13.8 -2.6 32 +13 +13 1020.2 993.0
14 17.06 Ю 4 н/о н/о +11.6 -2.6 37 +10 +10 1020.5 993.3 +27.0
15 17.06 Ю 5 н/о н/о +12.1 -1.4 39 +10 +10 1020.6 993.4
17 17.06 Ю 5 н/о н/о +11.9 -0.6 42 +10 +10 1020.1 992.9
18 17.06 Ю 4 н/о н/о +11.3 +0.1 46 +9 +9 1020.0 992.8
20 17.06 Ю 2 н/о н/о +7.6 -0.1 58 +6 +6 1020.2 993.0
21 17.06 ЮЗ 3 н/о н/о +5.9 -1.3 60 +3 +3 1020.6 993.4
23 17.06 Ю 6 н/о н/о +12.9 +1.0 44 +11 +11 1022.1 994.9
00 18.06 ЮВ 7 н/о н/о +16.5 +1.4 36 +15 +15 1022.2 995.0
02 18.06 ЮВ 7 н/о н/о +20.0 +0.5 27 +20 +20 1020.9 993.7 +5.7
03 18.06 ЮВ 8 н/о н/о +21.1 +0.3 25 +21 +21 комфорт 1019.8 992.6
05 18.06 Ю 10 н/о н/о +22.2 -0.5 22 +21 +21 комфорт 1018.1 991.0
06 18.06 Ю 9 н/о н/о +22.3 -1.1 21 +21 +21 комфорт 1017.7 990.6
08 18.06 Ю 8 н/о н/о +20.0 -1.2 24 +19 +19 1018.5 991.4
09 18.06 Ю 6 н/о н/о +18.5 -0.8 27 +18 +18 1019.1 992.0
11 18.06 Ю 4 н/о н/о +15.5 -1.1 32 +15 +15 1020.3 993.1
12 18.06 Ю 4 н/о н/о +13.3 -1.8 35 +12 +12 1020.7 993.5
14 18.06 Ю 4 н/о н/о +13.0 -0.6 39 +12 +12 1020.5 993.3 +22.9
15 18.06 Ю 3 н/о н/о +11.2 -0.9 43 +10 +10 1020.7 993.5
17 18.06 Ю 4 н/о н/о +10.0 -0.5 48 +8 +8 1019.9 992.7
18 18.06 Ю 4 н/о н/о +8.5 -0.8 52 +6 +6 1020.0 992.8
20 18.06 ЮЗ 3 н/о н/о +6.2 -1.0 60 +3 +3 1020.1 992.9
21 18.06 Ю 3 н/о н/о +6.1 -0.4 63 +3 +3 1020.3 993.1
23 18.06 Ю 6 н/о н/о +12.4 +1.7 48 +10 +10 1020.7 993.5
00 19.06 ЮВ 7 н/о н/о +15.7 +1.8 39 +14 +14 1021.2 994.0
02 19.06 Ю 7 н/о н/о +20.2 +2.1 30 +20 +20 1020.0 992.8 +5.4
03 19.06 ЮВ 5 н/о н/о +20.9 +1.2 27 +21 +21 комфорт 1018.7 991.6
05 19.06 ЮВ 6 н/о н/о +22.3 -0.4 22 +21 +21 комфорт 1017.0 989.9
06 19.06 Ю 6 н/о н/о +22.5 -0.9 21 +22 +22 комфорт 1016.8 989.7
08 19.06 Ю 6 н/о н/о +20.7 -0.6 24 +21 +21 комфорт 1017.6 990.5
09 19.06 Ю 4 н/о н/о +18.5 -0.8 27 +18 +18 1018.1 991.0
11 19.06 Ю 5 н/о н/о +15.9 -1.2 31 +15 +15 1019.1 992.0
12 19.06 Ю 5 н/о н/о +14.9 -1.2 33 +14 +14 1019.5 992.3
14 19.06 Ю 4 н/о н/о +13.2 -0.4 39 +12 +12 1019.2 992.1 +23.3
15 19.06 Ю 4 н/о н/о +12.5 -0.4 41 +11 +11 1019.4 992.2

 

Местоположение метеостанции Камоауил (Квинсленд, Австралия): широта -19.91 долгота 138.11 высота над уровнем моря 231 м.

В архиве по умолчанию представлена погода в Камоауиле за последнюю неделю. Архивные данные за месяц целиком и за предыдущие месяцы, начиная с января 2011 года, Вы можете получить, выбрав интересующий диапазон дат из раскрывающегося списка и нажав кнопку "Ввод!".


*Определитесь, кто Вы:
робот инопланетянин человек

Внимание! Время в таблицах - всемирное. Для получения местного времени необходимо прибавить поправку, которая равна 10 ч.

Смотрите также архив погоды в соседних городах и на ближайших метеорологических станциях:

Погода на Руднике Century Mine (Квинсленд, Австралия) (143 км)
Погода в Нью Мэй Даун (Квинсленд, Австралия) (149 км)
Погода на Маунт-Айза (Квинсленд, Австралия) (167 км)
Погода на Озере Джулиус (Квинсленд, Австралия) (171 км)
Погода в Клонкарри (Квинсленд, Австралия) (263 км)
Погода в Фосфат-Хилл (Квинсленд, Австралия) (282 км)
Погода в Беркетауне (Квинсленд, Австралия) (283 км)
Погода в Аэропорту Трепелл (Квинсленд, Австралия) (358 км)
Погода на Острове Морнингтон (Квинсленд, Австралия) (378 км)
Погода в Джулия Крик (Квинсленд, Австралия) (387 км)

Пояснения к столбцам:

Ветер - указаны скорость ветра в м/с - средняя за 10 мин, порывы в срок и между сроками (в фигурных скобках) и направление, откуда дует ветер: С - северный, СВ - северо-восточный, В - восточный, ЮВ - юго-восточный, Ю - южный, ЮЗ - юго-западный, З - западный, СЗ - северо-западный.
Видимость - горизонтальная дальность видимости в метрах или километрах. При видимости от 1 до 10 км при отсутствии осадков обычно наблюдается дымка, при ухудшении видимости до 1 км и менее - туман. В сухую погоду видимость может ухудшаться дымом, пылью или мглою.
Явления - указаны атмосферные явления, наблюдавшиеся в срок или в последний час перед сроком; фигурными скобками обозначены явления, наблюдавшиеся между сроками (за 1-3 часа до срока); квадратными скобками обозначены град или гололедные отложения с указанием их диаметра в мм.
Облачность - указаны через наклонную черту общая и нижняя облачность в баллах и высота нижней границы облаков в метрах; квадратными скобками обозначены формы облаков: Ci - перистые, Cs - перисто-слоистые, Cc - перисто-кучевые, Ac - высококучевые, As - высокослоистые, Sc - слоисто-кучевые, Ns - слоисто-дождевые, Cu - кучевые, Cb - кучево-дождевые. Подробнее классификацию облаков см. в Атласе облаков (PDF).
T - Температура воздуха - температура, измеренная на высоте 2 м над землей.
Td - Температура точки росы - температура, при понижении до которой содержащийся в воздухе водяной пар достигнет насыщения.
f - Относительная влажность воздуха - влажноcть воздуха, измеренная на высоте 2 м над землей.
Te - Эффективная температура - температура, которую ощущает одетый по сезону человек в тени. Характеристика душности погоды. При расчете учитывается влияние влажности воздуха и скорости ветра на теплоощущения человека.
Tes - Эффективная температура на солнце - температура, которую ощущает человек, с поправкой на солнечный нагрев. Характеристика знойности погоды. Зависит от высоты солнца над горизонтом, облачности и скорости ветра. Ночью, в пасмурную погоду, а также при ветре 12 м/с и более поправка равна нулю.
P - Атмосферное давление - приведенное к уровню моря атмосферное давление.
Po - Атмосферное давление - измеренное на уровне метеостанции атмосферное давление.
Tmin - Минимальная температура - минимум температуры воздуха на высоте 2 м над землей.
Tmax - Максимальная температура - максимум температуры воздуха на высоте 2 м над землей.
R - Количество осадков - Количество выпавших осадков за период времени, мм. При наведении курсора мыши на число - период времени, за который выпало указанное количество осадков.
R24 - Количество осадков - Количество выпавших осадков за 24 часа, мм.
S - Снежный покров - Высота снежного покрова, см. При наведении курсора мыши на число - состояние снежного покрова и степень покрытия местности в баллах.